Weather History for KFME - October, 2012

Change the Weather History Date:

Saturday, October 6, 2012

  Actual Average (KBWI) Record (KBWI)
Temperature  
Mean Temperature 61 °F 60 °F  
Max Temperature 78 °F 71 °F 95 °F (1941)
Min Temperature 44 °F 50 °F 33 °F (1965)
Degree Days  
Heating Degree Days 4 6  
Month to date heating degree days 22  
Since 1 July heating degree days 75  
Cooling Degree Days 0 1  
Month to date cooling degree days 5  
Year to date cooling degree days 1150  
Growing Degree Days 11 (Base 50)    
Moisture  
Dew Point 51 °F    
Average Humidity 79    
Maximum Humidity 100    
Minimum Humidity 47    
Precipitation  
Precipitation 0.00 in 0.11 in 1.59 in (1932)
Month to date precipitation 0.45  
Year to date precipitation 32.33  
Snow  
Snow 0.00 in 0.00 in - ()
Month to date snowfall 0.0  
Since 1 July snowfall 0.0  
Snow Depth -    
Sea Level Pressure  
Sea Level Pressure 29.94 in    
Wind  
Wind Speed 3 mph (West)    
Max Wind Speed 18 mph    
Max Gust Speed 24 mph    
Visibility 8 miles    
Events      
T = Trace of Precipitation, MM = Missing Value Source: NWS Daily Summary

Daily Weather History Graph

Daily Weather History Graph

Search for Another Location

Airport or City:

Trip Planner

Search our weather history database for the weather conditions in past years. The results will help you decide how hot, cold, wet, or windy it might be!

Date:

Astronomy

Oct. 06, 2012 Rise Set
Actual Time 7:08 AM EDT 6:41 PM EDT
Civil Twilight 6:41 AM EDT 7:07 PM EDT
Nautical Twilight 6:10 AM EDT 7:38 PM EDT
Astronomical Twilight 5:39 AM EDT 8:09 PM EDT
Moon 10:56 PM EDT (10/6) 12:59 PM EDT (10/6)
Length of Visible Light 12h 26m
Length of Day
11h 32m
Waning Gibbous, 65% of the Moon is Illuminated
Oct 6
Waning Gibbous
Oct 8
Last Quarter
Oct 15
New
Oct 21
First Quarter
Oct 29
Full

Hourly Weather History & Observations

Time (EDT) Temp. Dew Point Humidity Pressure Visibility Wind Dir Wind Speed Gust Speed Precip Events Conditions
12:09 AM 55.4 °F 53.6 °F 94% 29.98 in 5.0 mi Calm Calm - N/A   Clear
12:30 AM 55.4 °F 53.6 °F 94% 29.98 in 4.0 mi South 3.5 mph - N/A   Clear
12:51 AM 55.4 °F 53.6 °F 94% 29.96 in 4.0 mi Calm Calm - N/A   Clear
1:12 AM 55.4 °F 53.6 °F 94% 29.96 in 3.0 mi Calm Calm - N/A   Clear
1:33 AM 53.6 °F 53.6 °F 100% 29.96 in 4.0 mi Calm Calm - N/A   Clear
1:54 AM 53.6 °F 53.6 °F 100% 29.95 in 4.0 mi Calm Calm - N/A   Clear
2:15 AM 53.6 °F 53.6 °F 100% 29.94 in 4.0 mi Calm Calm - N/A   Clear
3:00 AM 53.6 °F 51.8 °F 94% 29.93 in 3.0 mi Calm Calm - N/A   Clear
3:21 AM 53.6 °F 51.8 °F 94% 29.93 in 3.0 mi Calm Calm - N/A   Clear
3:42 AM 53.6 °F 51.8 °F 94% 29.92 in 3.0 mi Calm Calm - N/A   Clear
4:03 AM 53.6 °F 51.8 °F 94% 29.92 in 4.0 mi Calm Calm - N/A   Clear
4:24 AM 51.8 °F 51.8 °F 100% 29.92 in 3.0 mi Calm Calm - N/A   Clear
4:45 AM 51.8 °F 50.0 °F 94% 29.91 in 2.5 mi Calm Calm - N/A   Clear
5:27 AM 51.8 °F 50.0 °F 94% 29.91 in 3.0 mi Calm Calm - N/A   Clear
5:51 AM 51.8 °F 50.0 °F 94% 29.91 in 3.0 mi Calm Calm - N/A   Clear
6:12 AM 51.8 °F 51.8 °F 100% 29.90 in 3.0 mi South 3.5 mph - N/A   Clear
6:33 AM 51.8 °F 51.8 °F 100% 29.90 in 3.0 mi Calm Calm - N/A   Clear
6:54 AM 51.8 °F 51.8 °F 100% 29.90 in 3.0 mi South 3.5 mph - N/A   Clear
7:15 AM 53.6 °F 51.8 °F 94% 29.89 in 2.0 mi Calm Calm - N/A   Clear
7:36 AM 53.6 °F 51.8 °F 94% 29.89 in 2.0 mi South 3.5 mph - N/A   Clear
7:57 AM 55.4 °F 53.6 °F 94% 29.88 in 3.0 mi Calm Calm - N/A   Clear
8:18 AM 55.4 °F 53.6 °F 94% 29.88 in 3.0 mi Calm Calm - N/A   Clear
8:39 AM 59.0 °F 55.4 °F 88% 29.88 in 4.0 mi SW 3.5 mph - N/A   Clear
9:00 AM 60.8 °F 59.0 °F 94% 29.88 in 7.0 mi SSW 4.6 mph - N/A   Clear
9:21 AM 64.4 °F 60.8 °F 88% 29.87 in 10.0 mi SW 6.9 mph - N/A   Clear
9:45 AM 66.2 °F 59.0 °F 78% 29.87 in 10.0 mi SW 5.8 mph - N/A   Scattered Clouds
10:06 AM 68.0 °F 59.0 °F 73% 29.87 in 10.0 mi SW 4.6 mph 9.2 mph N/A   Mostly Cloudy
10:27 AM 69.8 °F 59.0 °F 68% 29.87 in 10.0 mi SW 8.1 mph - N/A   Scattered Clouds
10:48 AM 71.6 °F 60.8 °F 69% 29.87 in 10.0 mi SW 5.8 mph - N/A   Mostly Cloudy
11:09 AM 71.6 °F 59.0 °F 64% 29.87 in 10.0 mi WSW 8.1 mph - N/A   Mostly Cloudy
11:30 AM 71.6 °F 59.0 °F 64% 29.86 in 10.0 mi WSW 6.9 mph - N/A   Mostly Cloudy
11:51 AM 71.6 °F 60.8 °F 69% 29.87 in 10.0 mi SW 5.8 mph - N/A   Scattered Clouds
12:12 PM 75.2 °F 59.0 °F 57% 29.86 in 10.0 mi SW 6.9 mph - N/A   Clear
12:33 PM 78.8 °F 59.0 °F 51% 29.86 in 10.0 mi West 9.2 mph - N/A   Clear
12:54 PM 78.8 °F 57.2 °F 47% 29.86 in 10.0 mi West 11.5 mph 16.1 mph N/A   Scattered Clouds
1:15 PM 73.4 °F 57.2 °F 57% 29.86 in 10.0 mi West 6.9 mph - N/A   Overcast
1:36 PM 71.6 °F 55.4 °F 57% 29.87 in 10.0 mi NW 18.4 mph 24.2 mph N/A   Overcast
2:00 PM 69.8 °F 55.4 °F 60% 29.88 in 10.0 mi NW 15.0 mph 24.2 mph N/A   Overcast
2:21 PM 68.0 °F 55.4 °F 64% 29.89 in 10.0 mi WNW 13.8 mph 20.7 mph N/A   Overcast
2:42 PM 66.2 °F 51.8 °F 60% 29.90 in 10.0 mi WNW 13.8 mph 19.6 mph N/A   Overcast
3:03 PM 64.4 °F 50.0 °F 59% 29.91 in 10.0 mi West 11.5 mph 23.0 mph N/A   Overcast
3:24 PM 66.2 °F 50.0 °F 56% 29.92 in 10.0 mi West 13.8 mph 17.3 mph N/A   Overcast
3:45 PM 68.0 °F 50.0 °F 52% 29.93 in 10.0 mi WNW 11.5 mph 21.9 mph N/A   Scattered Clouds
4:06 PM 68.0 °F 50.0 °F 52% 29.93 in 10.0 mi WNW 12.7 mph 20.7 mph N/A   Scattered Clouds
4:27 PM 66.2 °F 48.2 °F 52% 29.93 in 10.0 mi NW 11.5 mph 18.4 mph N/A   Clear
4:48 PM 64.4 °F 46.4 °F 52% 29.94 in 10.0 mi WNW 15.0 mph 18.4 mph N/A   Clear
5:09 PM 62.6 °F 44.6 °F 52% 29.95 in 10.0 mi NW 11.5 mph 19.6 mph N/A   Clear
5:30 PM 62.6 °F 44.6 °F 52% 29.96 in 10.0 mi WNW 9.2 mph 20.7 mph N/A   Clear
5:51 PM 60.8 °F 44.6 °F 55% 29.96 in 10.0 mi NW 6.9 mph 17.3 mph N/A   Clear
6:15 PM 60.8 °F 44.6 °F 55% 29.97 in 10.0 mi WNW 9.2 mph - N/A   Clear
6:36 PM 59.0 °F 44.6 °F 59% 29.98 in 10.0 mi NW 6.9 mph - N/A   Clear
7:18 PM 53.6 °F 44.6 °F 72% 30.01 in 10.0 mi NW 5.8 mph - N/A   Clear
7:39 PM 53.6 °F 44.6 °F 72% 30.01 in 10.0 mi WNW 3.5 mph - N/A   Clear
8:00 PM 51.8 °F 46.4 °F 82% 30.02 in 10.0 mi WNW 5.8 mph - N/A   Clear
8:21 PM 51.8 °F 44.6 °F 76% 30.03 in 10.0 mi WNW 3.5 mph - N/A   Clear
8:42 PM 51.8 °F 44.6 °F 76% 30.04 in 10.0 mi WNW 3.5 mph - N/A   Clear
9:03 PM 50.0 °F 44.6 °F 82% 30.05 in 10.0 mi Calm Calm - N/A   Clear
9:24 PM 50.0 °F 44.6 °F 82% 30.05 in 10.0 mi Calm Calm - N/A   Clear
9:45 PM 46.4 °F 44.6 °F 93% 30.06 in 10.0 mi Calm Calm - N/A   Clear
10:06 PM 46.4 °F 44.6 °F 93% 30.06 in 10.0 mi Calm Calm - N/A   Clear
10:30 PM 44.6 °F 42.8 °F 93% 30.07 in 10.0 mi Calm Calm - N/A   Clear
10:51 PM 44.6 °F 42.8 °F 93% 30.07 in 10.0 mi Calm Calm - N/A   Clear
11:12 PM 44.6 °F 42.8 °F 93% 30.08 in 10.0 mi Calm Calm - N/A   Clear
11:33 PM 44.6 °F 42.8 °F 93% 30.07 in 10.0 mi Calm Calm - N/A   Clear
11:54 PM 44.6 °F 42.8 °F 93% 30.08 in 10.0 mi Calm Calm - N/A   Clear